Location: Cottbus
(51.7000°N, 14.3000°E)
Time: 04:13:50
(UTC+01:00)

ISS - Pass Details

Date: 31 January 2019
Orbit: 403 x 411 km, 51.6° (Epoch: 17 February)

Event Time Altitude Azimuth Distance (km) Brightness Sun altitude
Rises 19:46:31 0° 280° (W) 2,340 1.3 -27.4°
Reaches altitude 10° 19:48:37 10° 278° (W) 1,479 0.0 -27.7°
Enters shadow 19:49:47 20° 275° (W) 1,017 -1.1 -27.9°
